Regional Weather Roundup
Issued by NWS

Home | Current Version | Previous Version | Graphics & Text | Print | Product List | Glossary On
Versions: 1 2 3 4 5 6 7 8 9 10 11 12 13 14 15 16 17 18 19 20 21 22 23 24 25 26 27 28 29 30 31 32 33 34 35 36 37 38 39 40 41 42 43 44 45 46 47 48 49 50
000
ASUS43 KOAX 211602
RWRNE

WEATHER ROUNDUP FOR NEBRASKA
NATIONAL WEATHER SERVICE OMAHA NE
1000 AM CST TUE NOV 21 2017

NOTES: SATELLITE DATA IS BEING USED TO AUGMENT CLOUD COVER ABOVE
       12000 FEET.
       "FAIR" INDICATES FEW OR NO CLOUDS BELOW 12,000 FEET WITH NO
       SIGNIFICANT WEATHER AND/OR OBSTRUCTIONS TO VISIBILITY.


NEZ001>004-019>022-054>056-211700-
NEBRASKA PANHANDLE

CITY           SKY/WX    TMP DP  RH WIND       PRES   REMARKS
SCOTTSBLUFF    MOSUNNY   36  25  64 W5        30.30R WCI  32
ALLIANCE       CLOUDY    31  24  75 N9        30.28R WCI  23
CHADRON        CLOUDY    31  28  89 SW6       30.32R WCI  25
GORDON         PTSUNNY   32  23  71 N18G25    30.27R WCI  20
KIMBALL        CLOUDY    34  29  82 NW8       30.28R WCI  27
SIDNEY         SUNNY     35  26  69 N17       30.27R WCI  25
$$

NEZ057>060-069>072-079>082-211700-
SOUTHWEST NEBRASKA

CITY           SKY/WX    TMP DP  RH WIND       PRES   REMARKS
NORTH PLATTE   SUNNY     37  22  54 NW20G31   30.25R WCI  27
LEXINGTON      CLOUDY    39  25  57 N24       30.23R WCI  28
MCCOOK         CLOUDY    39  26  59 N20G26    30.23R WCI  29
OGALLALA       SUNNY     38  25  58 N18       30.27R WCI  29
$$

NEZ005>010-023>029-035>040-094-211700-
NORTH CENTRAL NEBRASKA

CITY           SKY/WX    TMP DP  RH WIND       PRES   REMARKS
VALENTINE      SUNNY     24  12  60 N17G26    30.31R WCI  11
AINSWORTH      SUNNY     24  14  67 N20G25    30.29R WCI   9
BROKEN BOW     SUNNY     36  21  54 N35G41    30.23R WCI  22
O`NEILL        SUNNY     20  12  70 NW26G32   30.27R WCI   3
ORD            SUNNY     31  16  54 NW23G39   30.23R WCI  18
THEDFORD       MOSUNNY   33  24  70 N20G25    30.27R WCI  21
$$

NEZ041-046>049-061>064-073>077-083>087-211700-
SOUTH CENTRAL NEBRASKA

CITY           SKY/WX    TMP DP  RH WIND       PRES   REMARKS
GRAND ISLAND   CLOUDY    37  23  56 N26G38    30.22R WCI  25
AURORA         PTSUNNY   36  20  52 N28G37    30.20R WCI  23
HASTINGS       PTSUNNY   37  25  61 N26G35    30.21R WCI  25
HEBRON         SUNNY     42  27  55 N24G33    30.18R
HOLDREGE       PTSUNNY   38  26  62 N21G33    30.21R WCI  28
KEARNEY        CLOUDY    37  25  61 N25G35    30.22R WCI  25
YORK           PTSUNNY   37  18  44 N18G30    30.18R WCI  27
$$

NEZ011>018-030>034-042>045-211700-
NORTHEAST NEBRASKA

CITY           SKY/WX    TMP DP  RH WIND       PRES   REMARKS
NORFOLK        SUNNY     24   8  50 N28G38    30.20R WCI   7
ALBION         SUNNY     30  14  50 N24G35    30.22R WCI  17
BLAIR          SUNNY     29  10  46 NW22G39   30.16R WCI  15
COLUMBUS       SUNNY     31  11  43 NW29G40   30.20R WCI  16
FREMONT        SUNNY     29  11  47 NW25G33   30.21R WCI  15
TEKAMAH        SUNNY     27  11  51 NW21G35   30.20R WCI  13
WAYNE          SUNNY     22   5  49 N24G32    30.23R WCI   5
$$

NEZ050>053-065>068-078-088>093-211700-
SOUTHEAST NEBRASKA

CITY           SKY/WX    TMP DP  RH WIND       PRES   REMARKS
LINCOLN        PTSUNNY   39  10  30 NW26G37   30.18R WCI  28
OMAHA EPPLEY   MOSUNNY   32  15  49 N23G35    30.16R WCI  19
BEATRICE       CLOUDY    43  27  53 N30G36    30.17R
FALLS CITY     CLOUDY    44  24  45 N18G28    30.09R
NEBRASKA CITY  PTSUNNY   41  17  38 N30G39    30.11R
PLATTSMOUTH    PTSUNNY   37  13  36 NW28G37   30.13R WCI  25
$$

NEZ044-045-051>053-067-211700-
OMAHA AREA

CITY           SKY/WX    TMP DP  RH WIND       PRES   REMARKS
OMAHA EPPLEY   MOSUNNY   32  15  49 N23G35    30.16R WCI  19
BLAIR          SUNNY     29  10  46 NW22G39   30.16R WCI  15
FREMONT        SUNNY     29  11  47 NW25G33   30.21R WCI  15
MILLARD        MOSUNNY   32  13  45 NW18G32   30.17R WCI  21
OFFUTT AFB     PTSUNNY   38  10  31 NW29G35   30.14R WCI  25
PLATTSMOUTH    PTSUNNY   37  13  36 NW28G37   30.13R WCI  25
WAHOO          FAIR      33  12  42 N32G41    30.17R WCI  18
$$



USA.gov is the U.S. government's official web portal to all federal, state and local government web resources and services.